Location: Bottens
(46.6171°N, 6.6605°E)
Time: 08:48:32
(UTC+00:00)

ATLAS 5 CENTAUR R/B - Pass Details

Date: 06 November 2021
Orbit: 497 x 1159 km, 63.4° (Epoch: 25 November)

Event Time Altitude Azimuth Distance (km) Brightness Sun altitude
Rises 18:53:13 0° 323° (NW) 3,036 5.7 -28.1°
Reaches altitude 10° 18:55:57 10° 340° (NNW) 2,232 4.7 -28.6°
Enters shadow 18:57:56 18° 1° (N) 1,841 4.0 -29.0°
